This demonstration page uses our WeatherBlox Daily Observations layout. Learn more.

Left ArrowRight Arrow

38.20091, -84.87328

Hourly Observations for May 21, 2020

Temp ( °F °C ) Dew Point ( °F °C ) Humidity (%) Winds ( mph kmh ) Pressure ( in mb ) Visibility ( mi km ) Precip ( " mm )
12:53 am 00:53 Clear 55 12.8 49 9.4 80 80 E 10 17 30.03 1017 10 16 0.00 0.00
1:53 am 01:53 Mostly Clear 55 12.8 49 9.4 80 80 E 8 13 30.02 1017 10 16 0.00 0.00
2:53 am 02:53 Mostly Clear 55 12.8 50 10 83 83 ENE 7 11 30.01 1016 10 16 0.00 0.00
3:10 am 03:10 Mostly Cloudy 55 12.8 51 10.6 87 87 ENE 7 11 30.02 1017 10 16 0.00 0.00
3:53 am 03:53 Cloudy 55 12.8 50 10 83 83 E 7 11 30.01 1016 10 16 0.00 0.00
4:53 am 04:53 Mostly Cloudy 55 12.8 50 10 83 83 ENE 7 11 30.01 1016 10 16 0.00 0.00
5:53 am 05:53 Cloudy 56 13.3 51 10.6 84 84 NE 5 7 30.01 1016 10 16 0.00 0.00
6:17 am 06:17 Cloudy 56 13.3 51 10.6 84 84 ENE 5 7 30.02 1017 10 16 0.00 0.00
6:27 am 06:27 Cloudy 56 13.3 51 10.6 84 84 ENE 7 11 30.03 1017 10 16 0.00 0.00
6:53 am 06:53 Partly Cloudy 56 13.3 51 10.6 84 84 NE 5 7 30.02 1017 10 16 0.00 0.00
7:26 am 07:26 Mostly Cloudy 56 13.3 51 10.6 84 84 ENE 7 11 30.04 1017 10 16 0.00 0.00
7:53 am 07:53 Cloudy 58 14.4 52 11.1 81 81 E 8 13 30.04 1017 10 16 0.00 0.00
8:45 am 08:45 Cloudy 58 14.4 52 11.1 81 81 E 10 17 30.06 1018 10 16 0.00 0.00
8:53 am 08:53 Cloudy 58 14.4 52 11.1 81 81 E 9 15 30.05 1018 10 16 0.00 0.00
9:10 am 09:10 Cloudy 58 14.4 52 11.1 81 81 E 10 17 30.05 1018 10 16 0.00 0.00
9:20 am 09:20 Cloudy 59 15 52 11.1 78 78 E 7 11 30.06 1018 10 16 0.00 0.00
9:53 am 09:53 Cloudy 60 15.6 52 11.1 75 75 E 8 13 30.05 1018 10 16 0.00 0.00
10:53 am 10:53 Cloudy 60 15.6 53 11.7 78 78 ESE 7 11 30.07 1018 10 16 0.00 0.00
11:53 am 11:53 Cloudy 62 16.7 54 12.2 75 75 ESE 7 11 30.06 1018 10 16 0.00 0.00
12:53 pm 12:53 Cloudy 65 18.3 55 12.8 70 70 ESE 7 11 30.04 1017 10 16 0.00 0.00
1:53 pm 13:53 Cloudy 65 18.3 55 12.8 70 70 ENE 5 7 30.04 1017 10 16 0.00 0.00
2:53 pm 14:53 Cloudy 64 17.8 55 12.8 73 73 VRB 6 9 30.04 1017 10 16 0.00 0.00
3:33 pm 15:33 Cloudy 67 19.4 56 13.3 68 68 NE 7 11 30.02 1017 10 16 0.00 0.00
3:53 pm 15:53 Cloudy 67 19.4 56 13.3 68 68 E 6 9 30.03 1017 10 16 0.00 0.00
4:53 pm 16:53 Cloudy 69 20.6 56 13.3 63 63 E 6 9 30.01 1016 10 16 0.00 0.00
5:53 pm 17:53 Cloudy 69 20.6 56 13.3 63 63 ENE 3 6 30.01 1016 10 16 0.00 0.00
6:53 pm 18:53 Partly Cloudy 69 20.6 58 14.4 68 68 ENE 8 13 29.99 1016 10 16 0.00 0.00
7:53 pm 19:53 Cloudy 67 19.4 57 13.9 71 71 E 6 9 30.00 1016 10 16 0.00 0.00
8:53 pm 20:53 Cloudy 66 18.9 58 14.4 75 75 NE 5 7 30.01 1016 10 16 0.00 0.00
9:53 pm 21:53 Cloudy 65 18.3 57 13.9 76 76 ENE 7 11 30.02 1017 10 16 0.00 0.00
10:53 pm 22:53 Mostly Clear 63 17.2 57 13.9 81 81 E 5 7 30.03 1017 10 16 0.00 0.00
11:53 pm 23:53 Mostly Cloudy 61 16.1 57 13.9 87 87 ENE 5 7 30.04 1017 10 16 0.00 0.00

Powered by AerisWeather